Home > Weather > Stellenbosch > Past weeks

Flag for South Africa Past Weather in Stellenbosch, South Africa — Yesterday and Last 2 Weeks

Now
55 °F

Light rain. Passing clouds.


Feels Like: 51 °F
Forecast: 43 / 55 °F
Wind: 20 mph from North

Location: Cape Town International Airport

Current Time: Jul 1, 2016 at 1:12:29 AM

Latest Report: Jul 1, 2016 at 12:00 AM


Visibility: 4 mi

Pressure: 29.92 "Hg

Humidity: 88%

Dew Point: 52 °F

Location of StellenboschLocation

Past Weather in Stellenbosch — Graph

°F

Stellenbosch Temperature Yesterday

Maximum temperature yesterday: 61 °F (at 1:00 PM)
Minimum temperature yesterday: 43 °F (at 4:00 AM)
Average temperature yesterday: 52 °F

High & Low Weather Summary for the Past Weeks

 TemperatureHumidityPressure
High77 °F (Jun 23, 2:00 PM)94% (Jun 16, 7:00 AM)30.45 "Hg (Jun 16, 7:00 AM)
Low37 °F (Jun 22, 8:00 AM)29% (Jun 23, 1:00 PM)29.92 "Hg (Jun 30, 10:00 PM)
Average53 °F78%30.17 "Hg
* Reported Jun 16 12:00 AM — Jul 1 12:00 AM, Stellenbosch, Weather by CustomWeather, © 2016

Note: Actual official high and low records may vary slightly from our data, if they occured in-between our weather recording intervals... More about our weather records

Advertising

Stellenbosch Weather History for the Previous 24 Hours

Scroll right to see more
 ConditionsComfort  
Time TempWeatherWind HumidityBarometerVisibility
12:00 AM
Fri, Jul 1
55 °FLight rain. Passing clouds.20 mph88%29.92 "Hg4 mi
11:00 PM
Thu, Jun 30
55 °FLight rain. Passing clouds.20 mph88%29.92 "Hg4 mi
10:00 PM57 °FPassing clouds.20 mph77%29.92 "HgN/A
9:00 PM55 °FPassing clouds.22 mph77%29.95 "HgN/A
8:00 PM55 °FPassing clouds.21 mph77%29.95 "HgN/A
7:00 PM57 °FPassing clouds.18 mph72%29.95 "HgN/A
6:00 PM57 °FPassing clouds.16 mph72%29.95 "HgN/A
5:00 PM59 °FPassing clouds.18 mph68%29.95 "HgN/A
4:00 PM61 °FPartly sunny.21 mph63%29.95 "HgN/A
3:00 PM61 °FPartly sunny.17 mph63%29.98 "HgN/A
2:00 PM61 °FPartly sunny.20 mph63%29.98 "HgN/A
1:00 PM61 °FScattered clouds.17 mph63%30.01 "HgN/A
12:00 PM59 °FScattered clouds.12 mph68%30.04 "HgN/A
11:00 AM57 °FPassing clouds.13 mph67%30.04 "HgN/A
10:00 AM52 °FPassing clouds.13 mph77%30.04 "HgN/A
9:00 AM48 °FPassing clouds.13 mph82%30.04 "HgN/A
8:00 AM46 °FPassing clouds.13 mph82%30.04 "HgN/A
7:00 AM45 °FSunny.9 mph87%30.04 "Hg10 mi
6:00 AM45 °FPassing clouds.3 mph87%30.04 "HgN/A
5:00 AM45 °FPassing clouds.6 mph87%30.07 "HgN/A
4:00 AM43 °FPassing clouds.5 mph87%30.07 "HgN/A
3:00 AM45 °FPassing clouds.9 mph81%30.09 "HgN/A
2:00 AM45 °FPassing clouds.5 mph87%30.12 "HgN/A
1:00 AM45 °FPassing clouds.5 mph87%30.12 "HgN/A
Weather by CustomWeather, © 2016

See weather overviewHow to use our weather pages